Location: Gila Cliff Dwellings National Monument
(33.2240°N, 108.2417°W)
Time: 05:16:17
(UTC-06:00)

Cosmos 2322 Rocket - Visible Passes

Search period start: 01 September 2014 00:00
Search period end: 11 September 2014 00:00
Orbit: 834 x 850 km, 71.0° (Epoch: 31 August)

Date Brightness Start Highest point End Pass type
(mag) Time Alt. Az. Time Alt. Az. Time Alt. Az.
01 Sep 2.9 04:02:43 48° NNE 04:02:43 48° NNE 04:06:41 10° NNE visible
02 Sep 3.4 03:48:30 37° NNE 03:48:30 37° NNE 03:51:47 10° NNE visible
02 Sep 4.2 05:30:20 10° WNW 05:30:59 10° NW 05:31:50 10° NW visible
03 Sep 3.8 03:34:14 29° NNE 03:34:14 29° NNE 03:36:52 10° NNE visible
03 Sep 4.3 05:16:04 11° NW 05:16:04 11° NW 05:17:31 10° NW visible
04 Sep 4.2 03:19:56 23° NNE 03:19:56 23° NNE 03:21:57 10° NNE visible
04 Sep 4.3 05:01:46 11° NW 05:01:46 11° NW 05:03:00 10° NNW visible
05 Sep 4.5 03:05:36 19° NNE 03:05:36 19° NNE 03:07:03 10° NNE visible
05 Sep 4.4 04:47:26 12° NW 04:47:26 12° NW 04:48:23 10° NNW visible
06 Sep 4.8 02:51:13 15° NNE 02:51:13 15° NNE 02:52:07 10° NNE visible
06 Sep 4.5 04:33:03 11° NW 04:33:03 11° NW 04:33:43 10° NNW visible
07 Sep 5.0 02:36:49 12° NNE 02:36:49 12° NNE 02:37:12 10° NNE visible
07 Sep 4.6 04:18:39 11° NNW 04:18:39 11° NNW 04:19:01 10° NNW visible
08 Sep 4.7 04:04:13 10° NNW 04:04:13 10° NNW 04:04:18 10° NNW visible
